Location: Casilda
(33.0440°S, 61.1680°W)
Time: 20:52:02
(UTC-03:00)

ISS - Pass Details

Date: 28 November 2023
Orbit: 415 x 417 km, 51.6° (Epoch: 04 December)

Event Time Altitude Azimuth Distance (km) Brightness Sun altitude
Exits shadow 03:20:06 21° 192° (SSW) 1,001 -1.5 -25.3°
Drops below altitude 10° 03:22:05 10° 160° (SSE) 1,518 0.0 -25.0°
Sets 03:24:29 0° 145° (SE) 2,388 1.5 -24.7°
